Temperature
4 5 4 4 5 4 4 4 5 5 5 6 5 5 6 6 7 7 7 7 7 8 8 8 8 8 7 7 7 7 7 7 7 7 6 6 6 6 6 5 5 5 5 5
4 4 4 4 4 4 4 4 4 5 5 5 5 5 5 6 6 6 7 7 7 7 7 7 7 7 7 7 7 7 7 7 6 6 6 6 6 5 5 5 5 5 5 4
4 4 4 5 5 4 4 4 4 5 5 5 4 5 5 6 6 6 7 7 7 7 7 7 7 7 7 7 7 7 7 6 6 6 5 5 5 5 5 5 5 4 4 4
3 4 5 7 5 5 4 4 3 4 4 4 4 5 6 6 6 7 7 7 7 7 7 7 7 7 6 6 6 6 6 6 6 5 5 5 5 5 5 4 4 4 4 4
3 3 4 5 5 4 4 4 4 4 4 4 5 5 6 7 6 6 6 6 6 6 6 6 6 6 6 6 6 6 6 5 5 5 5 5 5 4 4 4 4 4 3 3
3 4 5 6 5 5 5 5 5 4 4 4 4 3 4 6 6 6 6 6 6 6 6 6 6 5 5 5 5 5 5 5 5 5 4 4 4 4 4 3 3 3 3 3
2 3 4 4 5 5 5 5 5 5 4 4 3 4 5 5 5 5 5 5 5 5 5 5 5 5 5 5 5 5 5 4 4 4 4 4 3 3 3 3 3 3 3 2
2 3 4 4 3 4 4 5 5 5 5 4 5 5 5 5 5 5 5 5 5 5 5 4 4 4 4 4 4 4 4 4 4 4 3 3 3 3 3 2 2 2 2 2
3 4 4 4 4 5 5 5 5 5 5 4 4 4 4 4 4 4 4 4 4 4 4 4 4 4 4 4 4 3 3 3 3 3 3 3 2 2 2 2 2 2 2 2
1 2 3 4 4 5 4 4 4 4 4 4 4 4 4 3 3 3 3 3 3 3 3 3 3 3 3 3 3 3 3 3 3 2 2 2 2 2 2 1 1 1 1 1
1 2 2 4 4 4 4 4 4 4 4 3 3 3 3 3 3 3 3 3 3 2 3 3 3 3 2 2 2 2 2 2 2 2 1 1 1 1 1 1 1 0 0 0
2 3 2 3 4 3 3 3 3 3 3 3 3 2 2 2 2 2 2 2 2 2 2 2 2 2 2 2 1 1 1 1 1 1 1 1 1 1 1 0 0 -0 -0 -0
3 3 3 3 3 3 2 2 2 2 2 2 2 2 2 2 1 1 1 1 1 1 1 1 1 1 1 1 1 1 1 1 0 0 0 0 -0 -0 -0 -0 -0 -1 -1 -1
2 2 2 2 2 2 2 2 2 1 1 1 1 1 1 1 1 1 1 1 0 0 1 1 1 1 1 1 0 0 0 0 -0 -0 -0 -1 -1 -1 -1 -1 -1 -1 -1 -1
1 1 1 1 1 1 1 1 1 1 1 1 1 0 0 0 0 0 -0 -0 -0 -0 -0 -0 0 0 -0 -0 -0 -0 -0 -0 -0 -1 -1 -1 -1 -2 -2 -2 -2 -2 -2 -2
1 1 0 0 0 0 0 0 0 -0 -0 -0 -0 -0 -1 -1 -1 -1 -1 -1 -1 -1 -1 -1 -1 -1 -1 -1 -1 -1 -1 -1 -1 -1 -1 -2 -2 -2 -2 -2 -2 -2 -2 -2
-1 -1 -1 -1 -1 -1 -0 -1 -1 -1 -1 -1 -1 -1 -1 -1 -1 -1 -1 -1 -1 -1 -1 -1 -1 -1 -1 -1 -1 -1 -1 -1 -2 -2 -2 -2 -2 -2 -3 -3 -3 -3 -3 -3
-1 -1 -1 -1 -1 -1 -1 -1 -1 -1 -1 -1 -2 -2 -2 -2 -2 -2 -2 -2 -2 -2 -2 -2 -2 -2 -2 -2 -2 -2 -2 -2 -2 -2 -2 -3 -3 -3 -3 -3 -3 -3 -3 -3
-1 -1 -1 -2 -2 -2 -2 -2 -2 -2 -2 -2 -2 -2 -2 -2 -2 -2 -2 -2 -2 -2 -2 -2 -2 -2 -2 -2 -2 -2 -3 -3 -3 -3 -3 -3 -3 -3 -3 -3 -4 -4 -4 -4
-2 -2 -2 -2 -2 -2 -2 -2 -2 -2 -2 -2 -3 -3 -3 -3 -3 -3 -3 -3 -3 -3 -3 -3 -3 -3 -3 -3 -3 -3 -3 -3 -3 -3 -3 -4 -4 -4 -4 -4 -4 -4 -4 -4
-2 -2 -3 -2 -3 -3 -3 -3 -3 -3 -3 -3 -3 -3 -3 -3 -3 -3 -3 -3 -3 -3 -3 -3 -3 -3 -3 -4 -4 -4 -4 -4 -4 -4 -4 -4 -4 -4 -4 -4 -4 -4 -4 -4
-3 -3 -3 -3 -3 -3 -3 -3 -3 -3 -3 -3 -4 -4 -4 -4 -4 -4 -4 -4 -4 -4 -4 -4 -4 -4 -4 -4 -4 -4 -4 -5 -5 -5 -5 -5 -5 -5 -5 -5 -5 -5 -5 -5
-3 -3 -3 -3 -3 -3 -3 -4 -4 -4 -4 -4 -4 -4 -4 -4 -4 -4 -4 -4 -4 -4 -4 -4 -5 -5 -5 -5 -5 -5 -5 -5 -5 -5 -5 -5 -5 -5 -5 -5 -5 -5 -5 -5
-4 -4 -4 -4 -4 -4 -4 -4 -4 -4 -4 -4 -4 -5 -5 -5 -5 -5 -5 -5 -5 -5 -5 -5 -5 -5 -5 -5 -5 -5 -5 -5 -5 -5 -5 -5 -5 -5 -5 -5 -5 -5 -5 -5
-4 -4 -4 -4 -4 -4 -5 -5 -5 -5 -5 -5 -5 -5 -5 -5 -5 -5 -5 -5 -5 -6 -6 -6 -6 -6 -6 -6 -6 -6 -6 -6 -6 -6 -6 -6 -6 -6 -6 -6 -6 -6 -6 -6
-5 -5 -5 -5 -5 -5 -5 -5 -5 -5 -6 -6 -5 -5 -6 -6 -6 -6 -6 -6 -6 -6 -6 -6 -6 -6 -6 -6 -6 -6 -6 -6 -6 -6 -6 -6 -6 -6 -6 -6 -6 -6 -6 -6
-5 -6 -6 -6 -6 -6 -6 -6 -6 -6 -6 -6 -6 -6 -6 -6 -7 -7 -7 -7 -6 -6 -7 -7 -7 -7 -7 -7 -7 -7 -7 -7 -7 -6 -6 -6 -6 -6 -6 -6 -6 -6 -6 -6
Wind_Speed
8 7 5 7 8 7 8 8 8 8 8 11 8 6 5 4 4 3 3 3 2 2 2 2 3 3 4 4 4 5 5 5 5 4 4 3 4 4 4 4 5 4 4 4
5 5 6 8 10 9 9 7 9 9 10 9 6 3 4 4 3 4 4 4 3 3 3 3 3 4 4 4 4 4 5 5 5 4 4 4 4 4 4 4 4 4 5 5
4 4 4 7 8 9 6 6 7 8 8 5 4 4 4 4 3 4 4 4 4 4 4 4 4 4 4 4 3 4 5 5 4 4 5 5 4 4 5 5 5 5 5 5
2 3 6 6 1 6 6 5 7 6 6 4 5 5 5 4 3 4 4 4 5 4 4 4 3 3 2 2 3 4 4 4 4 5 5 4 4 5 5 4 5 5 6 6
2 4 8 6 2 4 5 4 5 6 6 4 3 3 4 3 3 4 5 4 4 4 4 3 3 2 2 2 3 3 4 5 5 5 5 5 5 6 5 4 5 5 4 6
4 4 7 5 1 2 3 4 3 3 4 3 2 3 5 4 3 4 4 3 3 3 2 2 3 1 1 2 3 4 5 5 4 5 5 6 6 5 4 4 5 5 5 5
7 7 8 6 1 3 3 4 3 2 3 2 3 5 6 5 4 4 4 4 3 2 2 3 2 1 2 3 5 5 4 3 3 4 5 5 4 4 4 4 4 4 5 5
6 6 8 2 4 4 4 3 2 2 3 4 5 6 6 5 5 5 5 5 4 3 4 3 2 2 3 5 5 3 3 3 3 4 4 3 4 4 3 4 4 5 4 5
8 7 2 2 3 2 1 3 3 3 4 4 5 6 6 5 5 5 5 5 4 4 5 4 3 3 5 5 3 2 2 3 3 3 3 3 4 4 3 3 4 4 4 5
4 6 4 3 3 3 3 4 5 5 5 4 6 7 7 6 6 5 5 5 4 4 5 6 4 4 5 5 3 3 4 4 3 3 3 3 3 4 4 4 5 5 5 6
5 5 4 4 3 4 5 5 5 6 5 5 6 7 7 7 7 6 6 5 4 4 6 7 5 5 5 4 3 4 4 4 4 4 4 4 4 4 5 6 6 6 6 6
7 5 4 6 5 5 5 6 6 6 6 6 5 6 6 6 6 6 6 5 5 6 6 7 6 6 5 4 4 4 4 4 3 3 3 3 4 4 6 7 9 10 9 8
6 5 5 7 6 5 5 7 7 6 7 7 6 5 5 6 6 5 6 6 7 7 7 6 6 6 5 4 4 5 5 5 4 4 4 4 4 4 5 5 6 8 9 9
5 4 6 6 6 5 5 6 5 5 5 5 5 5 4 5 5 6 6 7 6 6 6 6 6 7 6 4 4 5 5 5 5 4 4 4 4 4 4 4 4 4 5 8
6 5 6 6 5 5 5 4 5 5 5 5 4 4 5 5 6 7 7 6 5 6 6 6 6 8 5 4 4 5 4 4 4 4 4 4 4 4 4 5 5 5 4 4
4 4 4 4 6 6 5 5 5 6 6 6 6 6 5 6 6 6 6 5 5 7 7 6 7 7 5 4 4 4 4 6 5 3 3 4 4 4 4 5 5 5 5 4
4 5 4 5 6 6 6 5 6 6 6 6 6 6 5 5 6 6 7 6 6 7 7 6 7 6 5 4 4 3 3 4 5 4 4 4 4 4 5 5 5 5 5 6
6 6 6 6 6 6 6 5 5 5 5 6 5 4 4 5 6 7 7 6 6 6 6 6 6 5 4 4 3 3 3 3 3 4 4 4 4 4 5 5 6 6 5 5
4 4 5 5 5 4 4 5 5 4 4 4 4 5 5 6 6 6 6 5 6 7 7 5 6 5 4 4 4 3 3 3 3 3 4 5 5 4 4 5 5 5 5 5
3 3 3 4 3 2 3 3 4 4 4 4 4 5 6 6 6 6 5 5 5 5 6 6 5 4 4 4 4 3 3 4 4 4 3 3 4 4 4 5 5 5 5 5
4 4 3 3 4 3 3 3 3 4 5 4 4 5 6 7 6 5 5 6 6 5 5 7 5 4 4 4 4 2 3 4 4 4 4 4 4 4 4 4 4 5 5 5
3 3 4 3 3 4 4 3 3 4 4 4 5 5 5 6 6 6 5 6 6 8 6 4 4 6 6 6 3 3 3 4 4 4 4 4 4 4 4 4 4 5 4 4
4 4 4 4 3 4 5 4 3 4 4 5 6 6 6 6 5 5 7 5 4 8 6 5 7 9 9 5 3 3 4 4 4 4 4 5 5 5 5 5 5 5 5 5
5 5 4 3 3 3 5 5 5 4 5 5 5 6 5 5 5 4 5 8 9 10 6 7 10 10 9 4 3 4 4 4 5 5 5 5 4 4 5 5 5 5 5 5
5 5 4 3 4 4 5 5 5 5 5 5 6 5 5 4 5 6 5 6 9 9 6 7 10 10 6 3 4 4 4 5 5 5 4 4 4 4 5 5 5 5 5 4
5 4 4 4 4 4 4 4 4 4 5 6 6 5 5 4 5 5 5 6 7 9 7 5 6 6 4 4 4 5 5 5 5 5 4 4 5 5 5 5 6 5 5 4
4 3 3 4 3 3 3 3 4 5 5 5 7 6 5 5 5 5 6 5 6 6 5 5 5 5 4 4 5 5 4 4 4 4 4 4 4 4 5 5 5 4 4 4
Wind_Direction
250 261 250 247 247 215 206 209 219 244 250 275 289 297 301 305 315 328 324 317 287 264 247 228 216 214 210 212 201 191 188 197 210 206 202 203 204 206 205 206 211 210 212 221
272 251 251 260 251 230 227 228 239 260 273 273 283 304 315 313 310 309 304 298 290 279 266 248 231 222 212 214 210 193 198 211 209 194 195 205 209 205 205 212 214 211 215 219
269 299 318 273 238 204 204 211 205 229 250 292 306 305 296 296 296 289 293 294 290 278 267 259 245 226 218 219 201 195 207 212 205 199 205 212 209 203 212 218 215 221 225 223
279 356 255 254 198 180 198 238 218 236 264 271 269 280 279 270 266 282 290 292 289 283 278 271 257 239 224 199 191 201 211 217 211 206 215 214 208 217 223 218 217 223 229 229
200 254 273 288 235 177 191 267 227 232 265 281 298 335 313 277 241 258 272 276 276 273 268 271 266 245 206 203 198 202 217 223 219 211 215 216 221 229 226 219 224 226 230 229
191 223 246 251 245 183 127 279 260 221 260 287 17 334 292 303 306 296 295 289 287 287 282 279 275 238 191 229 222 231 233 230 222 213 214 222 228 230 227 220 227 228 236 233
212 231 261 261 240 126 170 254 294 237 252 250 242 252 279 300 302 292 294 296 298 298 291 277 266 196 223 243 245 246 240 232 228 222 223 228 232 233 229 224 225 229 239 244
189 215 249 224 131 172 226 287 300 284 271 266 272 283 290 291 291 296 303 305 303 301 295 291 264 209 240 252 255 252 233 234 240 237 234 230 225 235 226 217 224 234 240 255
198 216 263 164 190 238 263 295 291 285 286 276 282 287 290 288 287 293 292 293 294 287 292 294 271 227 243 258 260 247 238 243 250 249 242 227 221 229 231 220 226 237 235 249
246 265 270 266 274 290 278 279 288 286 288 283 281 286 289 288 287 288 289 289 291 288 287 287 278 256 246 255 244 228 239 249 248 243 249 242 230 224 224 225 229 235 236 244
249 271 297 277 264 275 290 292 294 292 284 275 276 283 281 283 284 285 288 288 283 276 275 274 273 268 262 250 224 227 238 244 247 242 237 241 239 231 231 231 226 229 235 233
241 237 238 265 274 276 277 281 284 289 292 288 269 270 278 281 280 280 282 287 285 278 272 273 272 270 268 252 225 226 243 246 244 246 243 239 249 269 253 246 255 250 248 245
247 265 258 266 279 274 268 274 281 276 273 283 284 275 277 286 288 287 286 286 281 278 274 274 274 273 268 250 229 226 238 244 248 245 241 240 240 249 273 280 266 260 256 255
249 263 273 273 278 284 280 283 286 288 284 279 282 290 289 293 296 293 289 288 288 284 279 276 274 273 267 247 236 237 239 243 242 241 238 239 240 244 247 256 274 274 265 262
259 249 254 274 289 296 296 301 305 301 298 298 294 289 289 293 293 293 297 298 297 291 286 280 276 278 276 250 240 241 241 243 240 238 236 239 242 244 245 247 254 264 272 272
280 282 270 274 281 289 295 294 289 289 293 295 297 295 288 285 288 295 299 298 295 291 288 283 277 278 275 256 248 248 246 248 245 241 237 236 237 240 244 245 248 250 251 251
266 277 279 285 285 287 284 276 272 279 285 285 285 289 293 297 299 297 298 295 285 282 282 279 278 280 273 259 249 250 252 255 251 250 243 239 238 240 243 243 246 250 251 247
238 245 250 251 263 277 284 283 279 278 278 277 282 286 287 286 286 289 294 300 302 298 289 279 278 280 275 268 258 251 249 253 252 253 255 250 248 242 242 244 246 250 257 258
264 260 264 263 262 261 268 277 283 282 282 283 285 285 282 281 282 287 294 297 298 298 298 294 296 294 285 278 273 254 250 257 263 264 260 263 263 249 245 247 249 248 248 249
302 299 299 300 298 278 279 288 294 299 297 293 291 294 298 297 296 298 299 290 280 277 288 299 300 293 286 282 282 264 258 259 263 267 265 257 256 258 254 251 250 251 249 247
303 306 306 304 308 305 294 288 289 294 299 296 288 290 294 298 299 298 298 298 297 294 296 299 299 291 288 285 284 264 259 260 260 259 261 261 260 259 257 256 256 256 254 253
287 289 290 293 299 305 307 301 288 288 297 300 295 290 293 297 300 298 281 274 290 303 308 294 291 292 295 296 277 263 261 262 262 259 258 258 257 258 258 256 256 257 256 253
286 283 283 279 277 287 299 299 290 288 293 296 295 294 292 292 292 292 297 297 299 305 308 293 295 299 302 301 275 264 263 263 263 260 259 258 255 253 256 258 257 258 257 254
285 288 285 284 286 289 294 296 298 296 291 290 285 282 284 293 295 278 277 299 309 309 305 302 305 304 306 299 282 275 269 267 266 263 261 261 258 254 255 257 259 260 258 255
284 283 281 283 285 282 282 291 301 301 301 299 296 292 285 271 275 291 296 299 307 311 307 306 308 307 307 292 286 279 274 269 269 268 261 262 261 259 258 256 254 258 259 256
286 286 284 277 273 278 286 292 294 297 302 304 304 300 296 291 285 288 292 295 297 305 307 303 303 304 299 292 288 285 281 284 287 283 273 270 266 264 263 261 260 259 257 255
298 296 298 300 297 292 292 292 292 295 296 295 298 299 299 299 297 296 297 299 301 302 300 299 297 295 293 291 290 289 287 284 281 279 275 269 266 265 265 264 265 264 261 257
Height
1506 1504 1504 1502 1500 1502 1503 1502 1502 1494 1492 1482 1479 1478 1476 1475 1473 1472 1472 1471 1472 1472 1473 1473 1474 1475 1476 1477 1479 1480 1481 1482 1483 1484 1485 1486 1486 1487 1487 1488 1489 1489 1490 1490
1505 1501 1502 1500 1495 1496 1496 1496 1494 1491 1487 1479 1478 1477 1475 1473 1472 1471 1471 1470 1470 1471 1471 1471 1472 1473 1473 1474 1475 1476 1477 1478 1479 1480 1480 1481 1482 1482 1483 1483 1484 1484 1484 1485
1504 1501 1497 1494 1486 1488 1489 1488 1488 1487 1482 1477 1477 1475 1474 1472 1471 1471 1470 1470 1469 1469 1469 1469 1469 1470 1470 1471 1472 1472 1473 1474 1474 1475 1476 1477 1477 1478 1478 1479 1479 1479 1480 1480
1506 1502 1497 1482 1479 1479 1481 1481 1481 1480 1477 1476 1475 1474 1472 1472 1471 1470 1470 1469 1468 1468 1467 1467 1467 1467 1467 1468 1468 1469 1469 1470 1470 1471 1471 1472 1472 1473 1473 1474 1474 1474 1474 1474
1507 1504 1493 1481 1478 1478 1480 1479 1476 1476 1474 1474 1473 1472 1470 1470 1470 1470 1469 1468 1467 1466 1466 1465 1464 1464 1464 1464 1464 1465 1465 1466 1466 1467 1467 1467 1468 1468 1468 1468 1468 1469 1469 1469
1503 1499 1488 1477 1475 1474 1477 1478 1472 1472 1472 1473 1472 1474 1470 1468 1468 1467 1467 1466 1465 1464 1463 1462 1462 1461 1461 1460 1460 1460 1461 1461 1462 1462 1462 1462 1463 1463 1463 1463 1463 1463 1463 1463
1498 1495 1485 1476 1473 1474 1480 1476 1471 1470 1470 1471 1471 1471 1468 1466 1465 1464 1463 1463 1461 1460 1459 1459 1458 1458 1457 1456 1456 1456 1456 1457 1457 1457 1457 1458 1458 1458 1458 1458 1458 1458 1458 1458
1493 1493 1484 1472 1473 1475 1473 1470 1469 1468 1468 1468 1467 1466 1464 1463 1462 1461 1459 1458 1458 1456 1455 1455 1454 1453 1452 1452 1452 1452 1452 1452 1452 1452 1452 1452 1452 1453 1453 1453 1452 1452 1452 1452
1480 1476 1471 1470 1469 1470 1470 1469 1468 1467 1466 1465 1464 1462 1461 1459 1458 1457 1456 1455 1453 1452 1451 1450 1450 1449 1448 1448 1448 1447 1447 1447 1447 1447 1447 1447 1447 1447 1447 1447 1447 1446 1446 1446
1476 1471 1469 1468 1468 1468 1468 1467 1466 1465 1463 1462 1460 1459 1457 1456 1454 1453 1452 1451 1449 1448 1446 1446 1445 1445 1444 1444 1443 1442 1442 1442 1442 1441 1441 1441 1441 1441 1441 1441 1441 1441 1440 1440
1472 1468 1467 1465 1465 1465 1465 1464 1462 1461 1460 1458 1457 1455 1453 1451 1450 1449 1447 1446 1445 1444 1442 1441 1440 1440 1439 1439 1438 1437 1437 1437 1437 1436 1436 1436 1436 1436 1435 1435 1435 1435 1435 1434
1466 1464 1465 1463 1463 1462 1461 1460 1458 1457 1455 1454 1453 1451 1449 1447 1446 1444 1443 1441 1440 1439 1437 1436 1435 1434 1434 1434 1433 1432 1432 1431 1431 1431 1430 1430 1430 1430 1429 1430 1429 1429 1429 1429
1460 1460 1460 1459 1459 1458 1457 1455 1454 1453 1451 1449 1448 1447 1445 1443 1441 1440 1438 1437 1435 1433 1432 1431 1430 1429 1429 1428 1428 1427 1427 1426 1426 1426 1425 1425 1424 1424 1423 1423 1423 1423 1423 1423
1457 1457 1455 1455 1454 1453 1452 1451 1450 1448 1446 1445 1443 1442 1440 1438 1437 1435 1434 1432 1430 1429 1427 1426 1425 1424 1424 1423 1423 1422 1422 1421 1421 1420 1420 1420 1419 1418 1418 1417 1417 1416 1417 1417
1452 1452 1451 1450 1450 1449 1448 1446 1445 1443 1442 1440 1439 1437 1436 1434 1432 1431 1429 1428 1426 1424 1422 1421 1420 1419 1419 1418 1418 1417 1417 1416 1416 1415 1415 1414 1414 1413 1413 1412 1412 1411 1411 1411
1448 1447 1447 1446 1445 1444 1443 1442 1440 1439 1437 1436 1435 1433 1432 1431 1429 1427 1426 1424 1422 1420 1418 1417 1415 1415 1414 1413 1413 1412 1411 1411 1410 1410 1409 1409 1408 1408 1407 1407 1406 1406 1406 1406
1444 1443 1442 1442 1441 1440 1439 1438 1437 1435 1434 1432 1431 1429 1428 1426 1425 1423 1422 1420 1418 1416 1414 1413 1411 1410 1410 1409 1408 1407 1406 1406 1405 1404 1404 1403 1403 1403 1402 1402 1401 1401 1400 1400
1441 1440 1439 1438 1437 1436 1435 1434 1433 1432 1430 1429 1427 1426 1424 1422 1421 1419 1417 1415 1414 1412 1410 1409 1408 1406 1405 1404 1403 1402 1401 1401 1400 1399 1399 1398 1398 1397 1397 1396 1396 1395 1395 1395
1437 1436 1436 1435 1434 1433 1431 1430 1429 1428 1427 1425 1424 1422 1420 1419 1417 1415 1413 1411 1409 1407 1406 1405 1403 1402 1401 1400 1399 1398 1397 1396 1395 1394 1394 1393 1393 1393 1392 1391 1391 1390 1390 1390
1435 1434 1433 1431 1431 1430 1428 1427 1426 1425 1424 1423 1421 1419 1417 1415 1414 1411 1409 1407 1406 1404 1402 1400 1399 1397 1396 1395 1394 1393 1392 1391 1391 1390 1389 1389 1388 1388 1387 1386 1386 1385 1385 1384
1432 1431 1430 1429 1428 1427 1426 1425 1424 1423 1421 1420 1418 1416 1414 1412 1410 1408 1405 1403 1402 1400 1398 1396 1395 1393 1392 1391 1390 1389 1388 1387 1386 1385 1385 1384 1383 1383 1382 1382 1381 1380 1380 1379
1430 1429 1427 1426 1425 1425 1424 1423 1422 1420 1418 1417 1415 1413 1411 1409 1407 1404 1403 1401 1398 1396 1394 1392 1391 1389 1388 1387 1385 1384 1383 1382 1382 1381 1380 1380 1379 1378 1378 1377 1376 1376 1375 1375
1427 1426 1425 1424 1423 1422 1421 1420 1419 1417 1415 1413 1412 1410 1408 1405 1403 1401 1398 1397 1394 1392 1390 1388 1387 1385 1384 1382 1381 1380 1379 1378 1377 1377 1376 1375 1375 1374 1373 1372 1372 1371 1370 1370
1424 1423 1422 1420 1419 1418 1417 1416 1415 1413 1411 1410 1408 1406 1404 1401 1399 1398 1395 1393 1390 1388 1386 1384 1383 1381 1380 1378 1377 1376 1375 1374 1373 1372 1371 1371 1370 1369 1369 1368 1367 1367 1366 1366
1421 1419 1418 1417 1416 1414 1413 1412 1410 1409 1407 1405 1404 1402 1401 1398 1396 1393 1391 1389 1387 1384 1382 1380 1379 1377 1375 1374 1373 1372 1370 1369 1368 1368 1367 1366 1365 1365 1364 1364 1363 1362 1362 1361
1417 1415 1414 1413 1412 1411 1409 1408 1406 1404 1403 1401 1399 1398 1396 1394 1392 1389 1387 1385 1382 1380 1378 1376 1374 1373 1371 1370 1368 1367 1366 1365 1364 1363 1362 1361 1361 1360 1360 1359 1359 1358 1358 1357
1413 1411 1410 1409 1408 1407 1405 1404 1402 1400 1399 1397 1394 1393 1391 1389 1387 1384 1382 1380 1378 1376 1374 1372 1370 1368 1367 1365 1364 1363 1362 1361 1360 1359 1358 1357 1356 1356 1355 1355 1354 1354 1353 1353